Home   Weather   Getholm   Past weeks
Flag for Finland

Past Weather in Getholm, Finland — Yesterday and Last 2 Weeks

Now
39 °F

Drizzle. Low clouds.


Feels Like: 31 °F
Forecast: 51 / 43 °F
Wind: 14 mph from Northeast

Location: Helsinki-Vantaa

Current Time: Oct 17, 2019 at 6:46:09 am

Latest Report: Oct 17, 2019 at 6:20 am


Visibility: N/A

Pressure: 29.77 "Hg

Humidity: 93%

Dew Point: 37 °F

Location of GetholmLocation

Past Weather in Getholm — Graph

°F

Getholm Temperature Yesterday

Maximum temperature yesterday: 45 °F (at 5:20 am)
Minimum temperature yesterday: 39 °F (at 2:50 pm)
Average temperature yesterday: 41 °F

High & Low Weather Summary for the Past Weeks

 TemperatureHumidityPressure
High54 °F (Oct 13, 2:20 pm)100% (Oct 2, 7:20 am)30.21 "Hg (Oct 2, 7:20 am)
Low25 °F (Oct 15, 7:50 am)66% (Oct 2, 4:50 pm)29.09 "Hg (Oct 2, 4:20 am)
Average40 °F91%29.74 "Hg
* Reported Oct 2 4:20 am — Oct 17 4:50 am, Getholm. Weather by CustomWeather, © 2019

Note: Actual official high and low records may vary slightly from our data, if they occured in-between our weather recording intervals... More about our weather records

Advertising

Getholm Weather History for the Previous 24 Hours

Scroll right to see more
 ConditionsComfort  
Time TempWeatherWind HumidityBarometerVisibility
4:50 am
Thu, Oct 17
39 °FDrizzle. Low clouds.14 mph100%29.77 "Hg4 mi
4:20 am39 °FDrizzle. Low clouds.12 mph100%29.80 "Hg4 mi
3:50 am39 °FDrizzle. Low clouds.13 mph100%29.77 "Hg4 mi
3:20 am39 °FDrizzle. Low clouds.13 mph100%29.80 "Hg4 mi
2:50 am39 °FDrizzle. Low clouds.15 mph100%29.80 "Hg5 mi
2:20 am39 °FDrizzle. Low clouds.12 mph100%29.80 "HgN/A
1:50 am39 °FLow clouds.13 mph100%29.80 "HgN/A
1:20 am39 °FLow clouds.12 mph100%29.80 "HgN/A
12:50 am39 °FDrizzle. Low clouds.12 mph100%29.80 "HgN/A
12:20 am39 °FLight rain. Low clouds.14 mph100%29.80 "HgN/A
11:50 pm
Wed, Oct 16
39 °FLight rain. Low clouds.13 mph100%29.80 "HgN/A
11:20 pm39 °FLight rain. Low clouds.12 mph100%29.80 "HgN/A
10:50 pm39 °FLight rain. Low clouds.13 mph100%29.80 "HgN/A
10:20 pm39 °FDrizzle. Low clouds.12 mph100%29.83 "Hg3 mi
9:50 pm39 °FDrizzle. Low clouds.13 mph100%29.83 "Hg3 mi
9:20 pm39 °FDrizzle. Low clouds.13 mph100%29.83 "Hg4 mi
8:50 pm39 °FDrizzle. Fog.13 mph100%29.83 "Hg2 mi
8:20 pm39 °FDrizzle. Fog.13 mph100%29.83 "Hg2 mi
7:50 pm39 °FDrizzle. Fog.13 mph100%29.83 "Hg2 mi
7:20 pm39 °FDrizzle. Fog.13 mph100%29.83 "Hg2 mi
6:50 pm39 °FDrizzle. Fog.13 mph100%29.83 "Hg3 mi
6:20 pm39 °FDrizzle. Low clouds.12 mph100%29.83 "Hg4 mi
5:50 pm39 °FDrizzle. Fog.13 mph100%29.83 "Hg2 mi
5:20 pm39 °FDrizzle. Fog.12 mph100%29.83 "Hg2 mi
4:50 pm39 °FDrizzle. Fog.12 mph100%29.83 "Hg2 mi
4:20 pm39 °FDrizzle. Fog.12 mph100%29.83 "Hg2 mi
3:50 pm39 °FDrizzle. Fog.13 mph100%29.83 "Hg2 mi
3:20 pm39 °FDrizzle. Fog.12 mph100%29.83 "Hg3 mi
2:50 pm39 °FDrizzle. Fog.12 mph100%29.83 "Hg3 mi
2:20 pm41 °FDrizzle. Partly sunny.10 mph93%29.83 "HgN/A
1:50 pm41 °FDrizzle. More clouds than sun.10 mph93%29.86 "HgN/A
1:20 pm45 °FLow clouds.12 mph93%29.86 "HgN/A
12:50 pm45 °FLow clouds.10 mph93%29.86 "HgN/A
12:20 pm45 °FLow clouds.9 mph93%29.86 "HgN/A
11:50 am45 °FLight rain. Low clouds.10 mph93%29.89 "HgN/A
11:20 am45 °FLight rain. Low clouds.10 mph93%29.89 "HgN/A
10:50 am45 °FDrizzle. Low clouds.13 mph93%29.89 "HgN/A
10:20 am45 °FLow clouds.12 mph93%29.89 "HgN/A
9:50 am45 °FLow clouds.13 mph87%29.92 "HgN/A
9:20 am43 °FLow clouds.10 mph93%29.92 "HgN/A
8:50 am43 °FLow clouds.12 mph93%29.92 "HgN/A
8:20 am43 °FDrizzle. Low clouds.13 mph93%29.95 "Hg5 mi
7:50 am43 °FDrizzle. Low clouds.13 mph93%29.95 "Hg2 mi
7:20 am43 °FPassing clouds.12 mph93%29.95 "Hg3 mi
6:50 am43 °FPassing clouds.13 mph93%29.98 "Hg4 mi
6:20 am43 °FOvercast.14 mph87%29.98 "HgN/A
Weather by CustomWeather, © 2019

See weather overview